Hourly Data Report for September 12, 2017

All times are specified in Local Standard Time (LST). Add 1 hour to adjust for Daylight Saving Time where and when it is observed.

KOUCHIBOUGUAC CS
NEW BRUNSWICK

46°47'00.000" N
65°01'00.000" W
21.00 m
8102328
71670
AKC

Download Data

Hourly Data (September 2017)
Hourly Data Report for September 12, 2017
Temp Definition
°C
Dew Point Temp Definition
°C
Rel Hum Definition
%
Wind Dir Definition
10's deg

Wind Spd Definition
km/h
Visibility Definition
km
Stn Press Definition
kPa
Hmdx Definition


Wind Chill Definition


Weather Definition


TIME
00:00 7.4 7.2 99   0   101.35     LegendNANA
01:00 6.8 6.6 99   0   101.30     LegendNANA
02:00 6.1 5.8 99 14 1   101.21     LegendNANA
03:00 6.0 5.8 99 26 2   101.17     LegendNANA
04:00 6.0 5.8 99 19 2   101.14     LegendNANA
05:00 5.2 5.0 99 0 1   101.09     LegendNANA
06:00 5.2 5.1 99 22 2   101.08     LegendNANA
07:00 6.6 6.5 99 22 1   101.08     LegendNANA
08:00 10.7 10.5 99   0   101.02     LegendNANA
09:00 14.8 12.6 87 34 2   100.96     LegendNANA
10:00 17.6 11.0 65 19 3   100.91     LegendNANA
11:00 19.6 11.5 59 17 4   100.85     LegendNANA
12:00 19.4 11.4 60 15 5   100.75     LegendNANA
13:00 21.2 11.5 54 17 5   100.67     LegendNANA
14:00 21.0 11.8 56 13 8   100.57     LegendNANA
15:00 21.2 12.3 57 12 5   100.49     LegendNANA
16:00 20.7 11.9 57 9 8   100.40     LegendNANA
17:00 20.5 13.4 64 11 5   100.35     LegendNANA
18:00 18.2 13.7 75 10 2   100.32     LegendNANA
19:00 16.5 13.3 81 7 1   100.31     LegendNANA
20:00 15.7 12.9 83 3 2   100.40     LegendNANA
21:00 13.5 12.0 91   0   100.36     LegendNANA
22:00 12.1 11.5 96   0   100.34     LegendNANA
23:00 11.5 10.7 95 21 3   100.37     LegendNANA

Notes on Data Quality.

Legend

  • E = Estimated
  • M = Missing
  • NA = Not Available
  • ‡ = Partner data that is not subject to review by the National Climate Archives
Date modified: